Year,Month,Day,Hour,Minute,Value (Times are PST for temperature in C)
2008,09,28,00,00,9.10
2008,09,28,00,01,9.10
2008,09,28,00,02,9.00
2008,09,28,00,03,9.00
2008,09,28,00,04,8.90
2008,09,28,00,05,8.90
2008,09,28,00,06,8.80
2008,09,28,00,07,8.80
2008,09,28,00,08,8.80
2008,09,28,00,09,8.70
2008,09,28,00,10,8.70
2008,09,28,00,11,8.60
2008,09,28,00,12,8.60
2008,09,28,00,13,8.60
2008,09,28,00,14,8.60
2008,09,28,00,15,8.60
2008,09,28,00,16,8.60
2008,09,28,00,17,8.60
2008,09,28,00,18,8.60
2008,09,28,00,19,8.60
2008,09,28,00,20,8.60
2008,09,28,00,21,8.60
2008,09,28,00,22,8.60
2008,09,28,00,23,8.60
2008,09,28,00,24,8.60
2008,09,28,00,25,8.60
2008,09,28,00,26,8.60
2008,09,28,00,27,8.60
2008,09,28,00,28,8.60
2008,09,28,00,29,8.70
2008,09,28,00,30,8.80
2008,09,28,00,31,8.90
2008,09,28,00,32,8.90
2008,09,28,00,33,9.00
2008,09,28,00,34,9.00
2008,09,28,00,35,9.00
2008,09,28,00,36,8.90
2008,09,28,00,37,8.90
2008,09,28,00,38,8.90
2008,09,28,00,39,8.80
2008,09,28,00,40,8.80
2008,09,28,00,41,8.70
2008,09,28,00,42,8.70
2008,09,28,00,43,8.60
2008,09,28,00,44,8.60
2008,09,28,00,45,8.50
2008,09,28,00,46,8.40
2008,09,28,00,47,8.40
2008,09,28,00,48,8.30
2008,09,28,00,49,8.30
2008,09,28,00,50,8.20
2008,09,28,00,51,8.20
2008,09,28,00,52,8.20
2008,09,28,00,53,8.10
2008,09,28,00,54,8.10
2008,09,28,00,55,8.10
2008,09,28,00,56,8.10
2008,09,28,00,57,8.10
2008,09,28,00,58,8.10
2008,09,28,00,59,8.10
2008,09,28,01,00,8.10
2008,09,28,01,01,8.00
2008,09,28,01,02,8.00
2008,09,28,01,03,8.10
2008,09,28,01,04,8.10
2008,09,28,01,05,8.00
2008,09,28,01,06,8.00
2008,09,28,01,07,8.00
2008,09,28,01,08,8.00
2008,09,28,01,09,8.00
2008,09,28,01,10,8.00
2008,09,28,01,11,8.00
2008,09,28,01,12,8.00
2008,09,28,01,13,8.00
2008,09,28,01,14,8.00
2008,09,28,01,15,8.00
2008,09,28,01,16,8.00
2008,09,28,01,17,8.00
2008,09,28,01,18,8.10
2008,09,28,01,19,8.00
2008,09,28,01,20,8.10
2008,09,28,01,21,8.10
2008,09,28,01,22,8.10
2008,09,28,01,23,8.10
2008,09,28,01,24,8.10
2008,09,28,01,25,8.10
2008,09,28,01,26,8.10
2008,09,28,01,27,8.10
2008,09,28,01,28,8.10
2008,09,28,01,29,8.10
2008,09,28,01,30,8.10
2008,09,28,01,31,8.10
2008,09,28,01,32,8.10
2008,09,28,01,33,8.20
2008,09,28,01,34,8.20
2008,09,28,01,35,8.30
2008,09,28,01,36,8.30
2008,09,28,01,37,8.30
2008,09,28,01,38,8.30
2008,09,28,01,39,8.30
2008,09,28,01,40,8.20
2008,09,28,01,41,8.20
2008,09,28,01,42,8.20
2008,09,28,01,43,8.10
2008,09,28,01,44,8.10
2008,09,28,01,45,8.10
2008,09,28,01,46,8.10
2008,09,28,01,47,8.20
2008,09,28,01,48,8.20
2008,09,28,01,49,8.20
2008,09,28,01,50,8.20
2008,09,28,01,51,8.20
2008,09,28,01,52,8.20
2008,09,28,01,53,8.20
2008,09,28,01,54,8.30
2008,09,28,01,55,8.30
2008,09,28,01,56,8.30
2008,09,28,01,57,8.30
2008,09,28,01,58,8.30
2008,09,28,01,59,8.30
2008,09,28,02,00,8.30
2008,09,28,02,01,8.30
2008,09,28,02,02,8.30
2008,09,28,02,03,8.30
2008,09,28,02,04,8.30
2008,09,28,02,05,8.30
2008,09,28,02,06,8.30
2008,09,28,02,07,8.30
2008,09,28,02,08,8.40
2008,09,28,02,09,8.30
2008,09,28,02,10,8.30
2008,09,28,02,11,8.30
2008,09,28,02,12,8.20
2008,09,28,02,13,8.20
2008,09,28,02,14,8.10
2008,09,28,02,15,8.00
2008,09,28,02,16,7.90
2008,09,28,02,17,7.80
2008,09,28,02,18,7.80
2008,09,28,02,19,7.80
2008,09,28,02,20,7.70
2008,09,28,02,21,7.60
2008,09,28,02,22,7.60
2008,09,28,02,23,7.60
2008,09,28,02,24,7.60
2008,09,28,02,25,7.70
2008,09,28,02,26,7.70
2008,09,28,02,27,7.80
2008,09,28,02,28,7.80
2008,09,28,02,29,7.80
2008,09,28,02,30,7.90
2008,09,28,02,31,7.90
2008,09,28,02,32,7.90
2008,09,28,02,33,7.90
2008,09,28,02,34,7.90
2008,09,28,02,35,7.90
2008,09,28,02,36,7.80
2008,09,28,02,37,7.80
2008,09,28,02,38,7.80
2008,09,28,02,39,7.80
2008,09,28,02,40,7.80
2008,09,28,02,41,7.80
2008,09,28,02,42,7.80
2008,09,28,02,43,7.90
2008,09,28,02,44,7.90
2008,09,28,02,45,8.00
2008,09,28,02,46,8.10
2008,09,28,02,47,8.20
2008,09,28,02,48,8.30
2008,09,28,02,49,8.30
2008,09,28,02,50,8.40
2008,09,28,02,51,8.40
2008,09,28,02,52,8.40
2008,09,28,02,53,8.40
2008,09,28,02,54,8.40
2008,09,28,02,55,8.40
2008,09,28,02,56,8.30
2008,09,28,02,57,8.30
2008,09,28,02,58,8.20
2008,09,28,02,59,8.10
2008,09,28,03,00,8.10
2008,09,28,03,01,8.00
2008,09,28,03,02,8.00
2008,09,28,03,03,8.10
2008,09,28,03,04,8.20
2008,09,28,03,05,8.30
2008,09,28,03,06,8.40
2008,09,28,03,07,8.50
2008,09,28,03,08,8.70
2008,09,28,03,09,8.70
2008,09,28,03,10,8.80
2008,09,28,03,11,8.90
2008,09,28,03,12,9.00
2008,09,28,03,13,9.00
2008,09,28,03,14,9.00
2008,09,28,03,15,9.10
2008,09,28,03,16,9.10
2008,09,28,03,17,9.20
2008,09,28,03,18,9.30
2008,09,28,03,19,9.30
2008,09,28,03,20,9.40
2008,09,28,03,21,9.40
2008,09,28,03,22,9.40
2008,09,28,03,23,9.50
2008,09,28,03,24,9.60
2008,09,28,03,25,9.60
2008,09,28,03,26,9.70
2008,09,28,03,27,9.80
2008,09,28,03,28,9.80
2008,09,28,03,29,9.90
2008,09,28,03,30,10.00
2008,09,28,03,31,10.00
2008,09,28,03,32,10.00
2008,09,28,03,33,10.10
2008,09,28,03,34,10.10
2008,09,28,03,35,10.10
2008,09,28,03,36,10.10
2008,09,28,03,37,10.10
2008,09,28,03,38,10.10
2008,09,28,03,39,10.10
2008,09,28,03,40,10.00
2008,09,28,03,41,10.10
2008,09,28,03,42,10.10
2008,09,28,03,43,10.10
2008,09,28,03,44,10.10
2008,09,28,03,45,10.20
2008,09,28,03,46,10.20
2008,09,28,03,47,10.20
2008,09,28,03,48,10.20
2008,09,28,03,49,10.20
2008,09,28,03,50,10.20
2008,09,28,03,51,10.20
2008,09,28,03,52,10.20
2008,09,28,03,53,10.30
2008,09,28,03,54,10.30
2008,09,28,03,55,10.30
2008,09,28,03,56,10.30
2008,09,28,03,57,10.30
2008,09,28,03,58,10.40
2008,09,28,03,59,10.40
2008,09,28,04,00,10.50
2008,09,28,04,01,10.50
2008,09,28,04,02,10.50
2008,09,28,04,03,10.60
2008,09,28,04,04,10.60
2008,09,28,04,05,10.60
2008,09,28,04,06,10.60
2008,09,28,04,07,10.60
2008,09,28,04,08,10.70
2008,09,28,04,09,10.70
2008,09,28,04,10,10.70
2008,09,28,04,11,10.70
2008,09,28,04,12,10.60
2008,09,28,04,13,10.60
2008,09,28,04,14,10.60
2008,09,28,04,15,10.70
2008,09,28,04,16,10.70
2008,09,28,04,17,10.70
2008,09,28,04,18,10.70
2008,09,28,04,19,10.60
2008,09,28,04,20,10.60
2008,09,28,04,21,10.60
2008,09,28,04,22,10.60
2008,09,28,04,23,10.60
2008,09,28,04,24,10.60
2008,09,28,04,25,10.60
2008,09,28,04,26,10.50
2008,09,28,04,27,10.40
2008,09,28,04,28,10.40
2008,09,28,04,29,10.40
2008,09,28,04,30,10.40
2008,09,28,04,31,10.30
2008,09,28,04,32,10.30
2008,09,28,04,33,10.30
2008,09,28,04,34,10.30
2008,09,28,04,35,10.30
2008,09,28,04,36,10.30
2008,09,28,04,37,10.30
2008,09,28,04,38,10.30
2008,09,28,04,39,10.20
2008,09,28,04,40,10.20
2008,09,28,04,41,10.30
2008,09,28,04,42,10.30
2008,09,28,04,43,10.30
2008,09,28,04,44,10.30
2008,09,28,04,45,10.30
2008,09,28,04,46,10.20
2008,09,28,04,47,10.20
2008,09,28,04,48,10.20
2008,09,28,04,49,10.20
2008,09,28,04,50,10.20
2008,09,28,04,51,10.20
2008,09,28,04,52,10.20
2008,09,28,04,53,10.20
2008,09,28,04,54,10.20
2008,09,28,04,55,10.20
2008,09,28,04,56,10.20
2008,09,28,04,57,10.20
2008,09,28,04,58,10.20
2008,09,28,04,59,10.10
2008,09,28,05,00,10.20
2008,09,28,05,01,10.20
2008,09,28,05,02,10.20
2008,09,28,05,03,10.20
2008,09,28,05,04,10.30
2008,09,28,05,05,10.30
2008,09,28,05,06,10.30
2008,09,28,05,07,10.30
2008,09,28,05,08,10.30
2008,09,28,05,09,10.30
2008,09,28,05,10,10.40
2008,09,28,05,11,10.40
2008,09,28,05,12,10.40
2008,09,28,05,13,10.40
2008,09,28,05,14,10.40
2008,09,28,05,15,10.50
2008,09,28,05,16,10.50
2008,09,28,05,17,10.60
2008,09,28,05,18,10.60
2008,09,28,05,19,10.60
2008,09,28,05,20,10.70
2008,09,28,05,21,10.70
2008,09,28,05,22,10.70
2008,09,28,05,23,10.70
2008,09,28,05,24,10.80
2008,09,28,05,25,10.80
2008,09,28,05,26,10.80
2008,09,28,05,27,10.80
2008,09,28,05,28,10.90
2008,09,28,05,29,10.90
2008,09,28,05,30,10.90
2008,09,28,05,31,11.00
2008,09,28,05,32,11.00
2008,09,28,05,33,11.00
2008,09,28,05,34,11.10
2008,09,28,05,35,11.10
2008,09,28,05,36,11.10
2008,09,28,05,37,11.10
2008,09,28,05,38,11.10
2008,09,28,05,39,11.10
2008,09,28,05,40,11.10
2008,09,28,05,41,11.10
2008,09,28,05,42,11.20
2008,09,28,05,43,11.20
2008,09,28,05,44,11.20
2008,09,28,05,45,11.20
2008,09,28,05,46,11.20
2008,09,28,05,47,11.20
2008,09,28,05,48,11.20
2008,09,28,05,49,11.20
2008,09,28,05,50,11.20
2008,09,28,05,51,11.10
2008,09,28,05,52,11.10
2008,09,28,05,53,11.10
2008,09,28,05,54,11.10
2008,09,28,05,55,11.10
2008,09,28,05,56,11.00
2008,09,28,05,57,11.00
2008,09,28,05,58,11.00
2008,09,28,05,59,10.90
2008,09,28,06,00,10.90
2008,09,28,06,01,10.90
2008,09,28,06,02,10.90
2008,09,28,06,03,10.90
2008,09,28,06,04,10.90
2008,09,28,06,05,10.90
2008,09,28,06,06,10.90
2008,09,28,06,07,10.80
2008,09,28,06,08,10.80
2008,09,28,06,09,10.80
2008,09,28,06,10,10.80
2008,09,28,06,11,10.80
2008,09,28,06,12,10.80
2008,09,28,06,13,10.70
2008,09,28,06,14,10.70
2008,09,28,06,15,10.70
2008,09,28,06,16,10.70
2008,09,28,06,17,10.70
2008,09,28,06,18,10.70
2008,09,28,06,19,10.70
2008,09,28,06,20,10.70
2008,09,28,06,21,10.70
2008,09,28,06,22,10.70
2008,09,28,06,23,10.70
2008,09,28,06,24,10.80
2008,09,28,06,25,10.70
2008,09,28,06,26,10.80
2008,09,28,06,27,10.80
2008,09,28,06,28,10.80
2008,09,28,06,29,10.80
2008,09,28,06,30,10.80
2008,09,28,06,31,10.80
2008,09,28,06,32,10.80
2008,09,28,06,33,10.80
2008,09,28,06,34,10.80
2008,09,28,06,35,10.80
2008,09,28,06,36,10.80
2008,09,28,06,37,10.80
2008,09,28,06,38,10.80
2008,09,28,06,39,10.80
2008,09,28,06,40,10.80
2008,09,28,06,41,10.80
2008,09,28,06,42,10.80
2008,09,28,06,43,10.80
2008,09,28,06,44,10.80
2008,09,28,06,45,10.80
2008,09,28,06,46,10.80
2008,09,28,06,47,10.80
2008,09,28,06,48,10.80
2008,09,28,06,49,10.90
2008,09,28,06,50,10.90
2008,09,28,06,51,10.90
2008,09,28,06,52,11.00
2008,09,28,06,53,11.00
2008,09,28,06,54,11.00
2008,09,28,06,55,11.10
2008,09,28,06,56,11.10
2008,09,28,06,57,11.10
2008,09,28,06,58,11.20
2008,09,28,06,59,11.20
2008,09,28,07,00,11.20
2008,09,28,07,01,11.20
2008,09,28,07,02,11.20
2008,09,28,07,03,11.20
2008,09,28,07,04,11.20
2008,09,28,07,05,11.20
2008,09,28,07,06,11.20
2008,09,28,07,07,11.30
2008,09,28,07,08,11.30
2008,09,28,07,09,11.20
2008,09,28,07,10,11.20
2008,09,28,07,11,11.20
2008,09,28,07,12,11.20
2008,09,28,07,13,11.20
2008,09,28,07,14,11.20
2008,09,28,07,15,11.20
2008,09,28,07,16,11.20
2008,09,28,07,17,11.20
2008,09,28,07,18,11.20
2008,09,28,07,19,11.20
2008,09,28,07,20,11.10
2008,09,28,07,21,11.10
2008,09,28,07,22,11.10
2008,09,28,07,23,11.10
2008,09,28,07,24,11.10
2008,09,28,07,25,11.10
2008,09,28,07,26,11.10
2008,09,28,07,27,11.10
2008,09,28,07,28,11.00
2008,09,28,07,29,11.00
2008,09,28,07,30,11.00
2008,09,28,07,31,11.00
2008,09,28,07,32,10.90
2008,09,28,07,33,10.90
2008,09,28,07,34,10.90
2008,09,28,07,35,10.90
2008,09,28,07,36,10.90
2008,09,28,07,37,10.90
2008,09,28,07,38,10.90
2008,09,28,07,39,10.80
2008,09,28,07,40,10.80
2008,09,28,07,41,10.80
2008,09,28,07,42,10.80
2008,09,28,07,43,10.90
2008,09,28,07,44,10.90
2008,09,28,07,45,10.90
2008,09,28,07,46,10.90
2008,09,28,07,47,10.90
2008,09,28,07,48,10.90
2008,09,28,07,49,10.90
2008,09,28,07,50,11.00
2008,09,28,07,51,11.00
2008,09,28,07,52,11.10
2008,09,28,07,53,11.10
2008,09,28,07,54,11.20
2008,09,28,07,55,11.20
2008,09,28,07,56,11.20
2008,09,28,07,57,11.30
2008,09,28,07,58,11.30
2008,09,28,07,59,11.40
2008,09,28,08,00,11.40
2008,09,28,08,01,11.50
2008,09,28,08,02,11.50
2008,09,28,08,03,11.60
2008,09,28,08,04,11.60
2008,09,28,08,05,11.60
2008,09,28,08,06,11.60
2008,09,28,08,07,11.70
2008,09,28,08,08,11.70
2008,09,28,08,09,11.70
2008,09,28,08,10,11.80
2008,09,28,08,11,11.80
2008,09,28,08,12,11.80
2008,09,28,08,13,11.90
2008,09,28,08,14,11.90
2008,09,28,08,15,12.00
2008,09,28,08,16,12.00
2008,09,28,08,17,12.10
2008,09,28,08,18,12.10
2008,09,28,08,19,12.10
2008,09,28,08,20,12.20
2008,09,28,08,21,12.20
2008,09,28,08,22,12.20
2008,09,28,08,23,12.30
2008,09,28,08,24,12.30
2008,09,28,08,25,12.30
2008,09,28,08,26,12.30
2008,09,28,08,27,12.40
2008,09,28,08,28,12.40
2008,09,28,08,29,12.40
2008,09,28,08,30,12.50
2008,09,28,08,31,12.50
2008,09,28,08,32,12.60
2008,09,28,08,33,12.60
2008,09,28,08,34,12.60
2008,09,28,08,35,12.70
2008,09,28,08,36,12.70
2008,09,28,08,37,12.70
2008,09,28,08,38,12.70
2008,09,28,08,39,12.80
2008,09,28,08,40,12.80
2008,09,28,08,41,12.80
2008,09,28,08,42,12.90
2008,09,28,08,43,12.90
2008,09,28,08,44,12.90
2008,09,28,08,45,13.00
2008,09,28,08,46,13.00
2008,09,28,08,47,13.10
2008,09,28,08,48,13.10
2008,09,28,08,49,13.10
2008,09,28,08,50,13.10
2008,09,28,08,51,13.10
2008,09,28,08,52,13.20
2008,09,28,08,53,13.20
2008,09,28,08,54,13.20
2008,09,28,08,55,13.20
2008,09,28,08,56,13.20
2008,09,28,08,57,13.20
2008,09,28,08,58,13.30
2008,09,28,08,59,13.30
2008,09,28,09,00,13.30
2008,09,28,09,01,13.30
2008,09,28,09,02,13.30
2008,09,28,09,03,13.40
2008,09,28,09,04,13.40
2008,09,28,09,05,13.40
2008,09,28,09,06,13.50
2008,09,28,09,07,13.50
2008,09,28,09,08,13.60
2008,09,28,09,09,13.60
2008,09,28,09,10,13.60
2008,09,28,09,11,13.70
2008,09,28,09,12,13.70
2008,09,28,09,13,13.70
2008,09,28,09,14,13.70
2008,09,28,09,15,13.70
2008,09,28,09,16,13.70
2008,09,28,09,17,13.70
2008,09,28,09,18,13.70
2008,09,28,09,19,13.70
2008,09,28,09,20,13.70
2008,09,28,09,21,13.70
2008,09,28,09,22,13.80
2008,09,28,09,23,13.80
2008,09,28,09,24,13.90
2008,09,28,09,25,13.90
2008,09,28,09,26,13.90
2008,09,28,09,27,13.90
2008,09,28,09,28,14.00
2008,09,28,09,29,14.10
2008,09,28,09,30,14.10
2008,09,28,09,31,14.10
2008,09,28,09,32,14.20
2008,09,28,09,33,14.20
2008,09,28,09,34,14.20
2008,09,28,09,35,14.20
2008,09,28,09,36,14.20
2008,09,28,09,37,14.30
2008,09,28,09,38,14.30
2008,09,28,09,39,14.40
2008,09,28,09,40,14.40
2008,09,28,09,41,14.40
2008,09,28,09,42,14.50
2008,09,28,09,43,14.60
2008,09,28,09,44,14.60
2008,09,28,09,45,14.60
2008,09,28,09,46,14.60
2008,09,28,09,47,14.70
2008,09,28,09,48,14.70
2008,09,28,09,49,14.80
2008,09,28,09,50,14.80
2008,09,28,09,51,14.80
2008,09,28,09,52,14.80
2008,09,28,09,53,14.90
2008,09,28,09,54,15.00
2008,09,28,09,55,15.00
2008,09,28,09,56,15.00
2008,09,28,09,57,15.00
2008,09,28,09,58,15.00
2008,09,28,09,59,15.00
2008,09,28,10,00,15.00
2008,09,28,10,01,15.00
2008,09,28,10,02,15.00
2008,09,28,10,03,15.00
2008,09,28,10,04,15.00
2008,09,28,10,05,15.00
2008,09,28,10,06,15.00
2008,09,28,10,07,15.00
2008,09,28,10,08,15.00
2008,09,28,10,09,15.00
2008,09,28,10,10,15.10
2008,09,28,10,11,15.10
2008,09,28,10,12,15.20
2008,09,28,10,13,15.20
2008,09,28,10,14,15.20
2008,09,28,10,15,15.30
2008,09,28,10,16,15.30
2008,09,28,10,17,15.30
2008,09,28,10,18,15.30
2008,09,28,10,19,15.30
2008,09,28,10,20,15.20
2008,09,28,10,21,15.20
2008,09,28,10,22,15.20
2008,09,28,10,23,15.20
2008,09,28,10,24,15.20
2008,09,28,10,25,15.20
2008,09,28,10,26,15.20
2008,09,28,10,27,15.10
2008,09,28,10,28,15.10
2008,09,28,10,29,15.10
2008,09,28,10,30,15.10
2008,09,28,10,31,15.10
2008,09,28,10,32,15.10
2008,09,28,10,33,15.20
2008,09,28,10,34,15.20
2008,09,28,10,35,15.20
2008,09,28,10,36,15.30
2008,09,28,10,37,15.30
2008,09,28,10,38,15.30
2008,09,28,10,39,15.30
2008,09,28,10,40,15.20
2008,09,28,10,41,15.20
2008,09,28,10,42,15.20
2008,09,28,10,43,15.10
2008,09,28,10,44,15.10
2008,09,28,10,45,15.20
2008,09,28,10,46,15.20
2008,09,28,10,47,15.20
2008,09,28,10,48,15.20
2008,09,28,10,49,15.10
2008,09,28,10,50,15.10
2008,09,28,10,51,15.00
2008,09,28,10,52,15.00
2008,09,28,10,53,15.00
2008,09,28,10,54,15.00
2008,09,28,10,55,15.00
2008,09,28,10,56,15.00
2008,09,28,10,57,15.00
2008,09,28,10,58,15.10
2008,09,28,10,59,15.20
2008,09,28,11,00,15.20
2008,09,28,11,01,15.30
2008,09,28,11,02,15.30
2008,09,28,11,03,15.30
2008,09,28,11,04,15.30
2008,09,28,11,05,15.40
2008,09,28,11,06,15.30
2008,09,28,11,07,15.30
2008,09,28,11,08,15.30
2008,09,28,11,09,15.30
2008,09,28,11,10,15.30
2008,09,28,11,11,15.40
2008,09,28,11,12,15.50
2008,09,28,11,13,15.50
2008,09,28,11,14,15.50
2008,09,28,11,15,15.60
2008,09,28,11,16,15.60
2008,09,28,11,17,15.60
2008,09,28,11,18,15.60
2008,09,28,11,19,15.70
2008,09,28,11,20,15.80
2008,09,28,11,21,15.80
2008,09,28,11,22,15.90
2008,09,28,11,23,15.90
2008,09,28,11,24,16.00
2008,09,28,11,25,16.10
2008,09,28,11,26,16.10
2008,09,28,11,27,16.10
2008,09,28,11,28,16.10
2008,09,28,11,29,16.10
2008,09,28,11,30,16.20
2008,09,28,11,31,16.20
2008,09,28,11,32,16.20
2008,09,28,11,33,16.20
2008,09,28,11,34,16.10
2008,09,28,11,35,16.10
2008,09,28,11,36,16.10
2008,09,28,11,37,16.10
2008,09,28,11,38,16.10
2008,09,28,11,39,16.10
2008,09,28,11,40,16.10
2008,09,28,11,41,16.10
2008,09,28,11,42,16.10
2008,09,28,11,43,16.10
2008,09,28,11,44,16.10
2008,09,28,11,45,16.10
2008,09,28,11,46,16.20
2008,09,28,11,47,16.20
2008,09,28,11,48,16.20
2008,09,28,11,49,16.30
2008,09,28,11,50,16.30
2008,09,28,11,51,16.30
2008,09,28,11,52,16.30
2008,09,28,11,53,16.30
2008,09,28,11,54,16.30
2008,09,28,11,55,16.30
2008,09,28,11,56,16.30
2008,09,28,11,57,16.40
2008,09,28,11,58,16.40
2008,09,28,11,59,16.40
2008,09,28,12,00,16.40
2008,09,28,12,01,16.40
2008,09,28,12,02,16.50
2008,09,28,12,03,16.60
2008,09,28,12,04,16.60
2008,09,28,12,05,16.70
2008,09,28,12,06,16.70
2008,09,28,12,07,16.80
2008,09,28,12,08,16.80
2008,09,28,12,09,16.80
2008,09,28,12,10,16.80
2008,09,28,12,11,16.80
2008,09,28,12,12,16.80
2008,09,28,12,13,16.80
2008,09,28,12,14,16.70
2008,09,28,12,15,16.80
2008,09,28,12,16,16.90
2008,09,28,12,17,17.00
2008,09,28,12,18,17.10
2008,09,28,12,19,17.10
2008,09,28,12,20,17.10
2008,09,28,12,21,17.10
2008,09,28,12,22,17.10
2008,09,28,12,23,17.10
2008,09,28,12,24,17.10
2008,09,28,12,25,17.10
2008,09,28,12,26,17.10
2008,09,28,12,27,17.10
2008,09,28,12,28,17.10
2008,09,28,12,29,17.10
2008,09,28,12,30,17.10
2008,09,28,12,31,17.10
2008,09,28,12,32,17.00
2008,09,28,12,33,17.00
2008,09,28,12,34,17.10
2008,09,28,12,35,17.10
2008,09,28,12,36,17.10
2008,09,28,12,37,17.10
2008,09,28,12,38,17.10
2008,09,28,12,39,17.10
2008,09,28,12,40,17.10
2008,09,28,12,41,17.20
2008,09,28,12,42,17.20
2008,09,28,12,43,17.20
2008,09,28,12,44,17.20
2008,09,28,12,45,17.30
2008,09,28,12,46,17.30
2008,09,28,12,47,17.40
2008,09,28,12,48,17.40
2008,09,28,12,49,17.30
2008,09,28,12,50,17.30
2008,09,28,12,51,17.40
2008,09,28,12,52,17.50
2008,09,28,12,53,17.50
2008,09,28,12,54,17.60
2008,09,28,12,55,17.70
2008,09,28,12,56,17.70
2008,09,28,12,57,17.70
2008,09,28,12,58,17.80
2008,09,28,12,59,17.80
2008,09,28,13,00,17.80
2008,09,28,13,01,17.80
2008,09,28,13,02,17.80
2008,09,28,13,03,17.80
2008,09,28,13,04,17.80
2008,09,28,13,05,17.80
2008,09,28,13,06,17.80
2008,09,28,13,07,17.70
2008,09,28,13,08,17.70
2008,09,28,13,09,17.70
2008,09,28,13,10,17.60
2008,09,28,13,11,17.60
2008,09,28,13,12,17.60
2008,09,28,13,13,17.60
2008,09,28,13,14,17.60
2008,09,28,13,15,17.70
2008,09,28,13,16,17.70
2008,09,28,13,17,17.80
2008,09,28,13,18,17.80
2008,09,28,13,19,17.80
2008,09,28,13,20,17.80
2008,09,28,13,21,17.80
2008,09,28,13,22,17.80
2008,09,28,13,23,17.90
2008,09,28,13,24,17.80
2008,09,28,13,25,17.80
2008,09,28,13,26,17.90
2008,09,28,13,27,17.90
2008,09,28,13,28,17.80
2008,09,28,13,29,17.90
2008,09,28,13,30,17.80
2008,09,28,13,31,17.80
2008,09,28,13,32,17.80
2008,09,28,13,33,17.80
2008,09,28,13,34,17.80
2008,09,28,13,35,17.80
2008,09,28,13,36,17.80
2008,09,28,13,37,17.90
2008,09,28,13,38,17.90
2008,09,28,13,39,17.80
2008,09,28,13,40,17.80
2008,09,28,13,41,17.80
2008,09,28,13,42,17.80
2008,09,28,13,43,17.80
2008,09,28,13,44,17.90
2008,09,28,13,45,17.90
2008,09,28,13,46,17.90
2008,09,28,13,47,17.90
2008,09,28,13,48,17.90
2008,09,28,13,49,17.90
2008,09,28,13,50,17.90
2008,09,28,13,51,18.00
2008,09,28,13,52,18.00
2008,09,28,13,53,18.10
2008,09,28,13,54,18.10
2008,09,28,13,55,18.10
2008,09,28,13,56,18.10
2008,09,28,13,57,18.20
2008,09,28,13,58,18.20
2008,09,28,13,59,18.20
2008,09,28,14,00,18.30
2008,09,28,14,01,18.30
2008,09,28,14,02,18.30
2008,09,28,14,03,18.30
2008,09,28,14,04,18.30
2008,09,28,14,05,18.30
2008,09,28,14,06,18.30
2008,09,28,14,07,18.30
2008,09,28,14,08,18.30
2008,09,28,14,09,18.30
2008,09,28,14,10,18.30
2008,09,28,14,11,18.30
2008,09,28,14,12,18.30
2008,09,28,14,13,18.30
2008,09,28,14,14,18.40
2008,09,28,14,15,18.50
2008,09,28,14,16,18.50
2008,09,28,14,17,18.50
2008,09,28,14,18,18.50
2008,09,28,14,19,18.50
2008,09,28,14,20,18.50
2008,09,28,14,21,18.60
2008,09,28,14,22,18.70
2008,09,28,14,23,18.60
2008,09,28,14,24,18.60
2008,09,28,14,25,18.60
2008,09,28,14,26,18.60
2008,09,28,14,27,18.60
2008,09,28,14,28,18.60
2008,09,28,14,29,18.70
2008,09,28,14,30,18.70
2008,09,28,14,31,18.80
2008,09,28,14,32,18.80
2008,09,28,14,33,18.80
2008,09,28,14,34,18.80
2008,09,28,14,35,18.70
2008,09,28,14,36,18.70
2008,09,28,14,37,18.70
2008,09,28,14,38,18.70
2008,09,28,14,39,18.60
2008,09,28,14,40,18.60
2008,09,28,14,41,18.60
2008,09,28,14,42,18.60
2008,09,28,14,43,18.70
2008,09,28,14,44,18.70
2008,09,28,14,45,18.70
2008,09,28,14,46,18.70
2008,09,28,14,47,18.70
2008,09,28,14,48,18.70
2008,09,28,14,49,18.80
2008,09,28,14,50,18.80
2008,09,28,14,51,18.80
2008,09,28,14,52,18.90
2008,09,28,14,53,18.90
2008,09,28,14,54,18.90
2008,09,28,14,55,18.90
2008,09,28,14,56,18.90
2008,09,28,14,57,18.90
2008,09,28,14,58,18.90
2008,09,28,14,59,18.90
2008,09,28,15,00,19.00
2008,09,28,15,01,19.00
2008,09,28,15,02,19.10
2008,09,28,15,03,19.10
2008,09,28,15,04,19.10
2008,09,28,15,05,19.10
2008,09,28,15,06,19.10
2008,09,28,15,07,19.10
2008,09,28,15,08,19.20
2008,09,28,15,09,19.20
2008,09,28,15,10,19.20
2008,09,28,15,11,19.20
2008,09,28,15,12,19.20
2008,09,28,15,13,19.20
2008,09,28,15,14,19.20
2008,09,28,15,15,19.10
2008,09,28,15,16,19.10
2008,09,28,15,17,19.10
2008,09,28,15,18,19.10
2008,09,28,15,19,19.00
2008,09,28,15,20,18.90
2008,09,28,15,21,18.90
2008,09,28,15,22,18.90
2008,09,28,15,23,18.90
2008,09,28,15,24,18.90
2008,09,28,15,25,18.90
2008,09,28,15,26,18.80
2008,09,28,15,27,18.80
2008,09,28,15,28,18.80
2008,09,28,15,29,18.80
2008,09,28,15,30,18.80
2008,09,28,15,31,18.80
2008,09,28,15,32,18.80
2008,09,28,15,33,18.90
2008,09,28,15,34,18.90
2008,09,28,15,35,18.90
2008,09,28,15,36,19.10
2008,09,28,15,37,19.10
2008,09,28,15,38,19.20
2008,09,28,15,39,19.30
2008,09,28,15,40,19.30
2008,09,28,15,41,19.30
2008,09,28,15,42,19.30
2008,09,28,15,43,19.20
2008,09,28,15,44,19.20
2008,09,28,15,45,19.20
2008,09,28,15,46,19.30
2008,09,28,15,47,19.30
2008,09,28,15,48,19.30
2008,09,28,15,49,19.30
2008,09,28,15,50,19.30
2008,09,28,15,51,19.20
2008,09,28,15,52,19.20
2008,09,28,15,53,19.20
2008,09,28,15,54,19.10
2008,09,28,15,55,19.10
2008,09,28,15,56,19.10
2008,09,28,15,57,19.10
2008,09,28,15,58,19.00
2008,09,28,15,59,19.00
2008,09,28,16,00,19.00
2008,09,28,16,01,19.10
2008,09,28,16,02,19.10
2008,09,28,16,03,19.20
2008,09,28,16,04,19.20
2008,09,28,16,05,19.20
2008,09,28,16,06,19.30
2008,09,28,16,07,19.30
2008,09,28,16,08,19.30
2008,09,28,16,09,19.20
2008,09,28,16,10,19.20
2008,09,28,16,11,19.20
2008,09,28,16,12,19.10
2008,09,28,16,13,19.10
2008,09,28,16,14,19.10
2008,09,28,16,15,19.10
2008,09,28,16,16,19.10
2008,09,28,16,17,19.10
2008,09,28,16,18,19.10
2008,09,28,16,19,19.10
2008,09,28,16,20,19.10
2008,09,28,16,21,19.20
2008,09,28,16,22,19.30
2008,09,28,16,23,19.40
2008,09,28,16,24,19.40
2008,09,28,16,25,19.40
2008,09,28,16,26,19.40
2008,09,28,16,27,19.40
2008,09,28,16,28,19.30
2008,09,28,16,29,19.40
2008,09,28,16,30,19.30
2008,09,28,16,31,19.30
2008,09,28,16,32,19.30
2008,09,28,16,33,19.30
2008,09,28,16,34,19.20
2008,09,28,16,35,19.20
2008,09,28,16,36,19.30
2008,09,28,16,37,19.30
2008,09,28,16,38,19.20
2008,09,28,16,39,19.20
2008,09,28,16,40,19.20
2008,09,28,16,41,19.20
2008,09,28,16,42,19.20
2008,09,28,16,43,19.30
2008,09,28,16,44,19.30
2008,09,28,16,45,19.30
2008,09,28,16,46,19.30
2008,09,28,16,47,19.30
2008,09,28,16,48,19.30
2008,09,28,16,49,19.30
2008,09,28,16,50,19.30
2008,09,28,16,51,19.30
2008,09,28,16,52,19.30
2008,09,28,16,53,19.30
2008,09,28,16,54,19.30
2008,09,28,16,55,19.30
2008,09,28,16,56,19.30
2008,09,28,16,57,19.30
2008,09,28,16,58,19.30
2008,09,28,16,59,19.30
2008,09,28,17,00,19.30
2008,09,28,17,01,19.30
2008,09,28,17,02,19.30
2008,09,28,17,03,19.40
2008,09,28,17,04,19.30
2008,09,28,17,05,19.30
2008,09,28,17,06,19.30
2008,09,28,17,07,19.30
2008,09,28,17,08,19.30
2008,09,28,17,09,19.30
2008,09,28,17,10,19.30
2008,09,28,17,11,19.30
2008,09,28,17,12,19.30
2008,09,28,17,13,19.30
2008,09,28,17,14,19.30
2008,09,28,17,15,19.40
2008,09,28,17,16,19.40
2008,09,28,17,17,19.30
2008,09,28,17,18,19.30
2008,09,28,17,19,19.30
2008,09,28,17,20,19.20
2008,09,28,17,21,19.20
2008,09,28,17,22,19.10
2008,09,28,17,23,19.10
2008,09,28,17,24,19.00
2008,09,28,17,25,19.00
2008,09,28,17,26,19.00
2008,09,28,17,27,19.10
2008,09,28,17,28,19.00